Theta_e
337 335 333 333 332 331 331 332 332 331 331 333 334 333 332 331 331 331 331 329 328 327 327 327 326 326 325 319 313 312 312 312 311 310 308 307 307 307 308 308 307 304 302 300 299 298 298 298 298 298 298 297 297 297 297 298 298 299 300 300 300 300 300 300 300 300 301 301 302 303 303 303 303 304 305 305 305 305 305 305 304 305 305 305 305
336 335 332 331 331 331 333 334 333 333 332 332 333 331 330 331 331 331 329 328 327 327 327 327 326 325 322 316 312 312 312 311 310 309 307 307 307 308 308 307 304 302 300 298 298 298 297 298 298 297 297 297 297 297 297 298 299 300 300 300 299 299 299 299 300 300 301 302 303 303 302 302 302 303 304 305 305 305 305 305 305 304 304 304 305
335 334 332 331 333 334 335 335 334 334 333 332 332 330 329 331 330 329 328 328 328 328 327 327 325 323 318 313 312 312 311 310 309 307 306 307 307 308 307 305 302 299 298 298 297 297 297 297 297 297 297 297 297 297 297 298 299 299 299 298 298 298 299 300 301 301 301 302 302 302 302 302 302 302 303 304 304 304 304 304 305 304 304 304 305
335 333 332 332 334 335 334 334 334 333 332 332 331 330 330 330 329 328 328 329 328 328 327 325 323 318 314 312 312 311 310 309 308 307 307 307 308 307 304 302 299 298 298 297 297 297 297 297 297 297 296 297 297 297 298 298 299 298 298 297 297 298 300 301 301 301 301 302 302 302 301 301 302 302 303 304 304 304 303 302 303 303 303 303 303
333 333 333 333 334 334 333 334 333 332 332 331 330 330 330 330 329 328 329 328 328 327 325 322 318 314 312 312 312 310 309 308 307 306 307 307 307 305 301 299 298 297 297 296 296 297 297 296 297 297 296 296 296 297 298 298 298 297 296 296 297 298 300 300 301 301 301 302 301 301 301 301 301 301 302 302 302 303 303 303 302 301 302 302 301
333 334 334 333 333 333 333 334 333 332 331 331 330 330 329 329 329 328 328 327 326 325 322 318 314 312 312 312 310 309 308 307 307 307 307 306 304 301 299 298 297 297 296 296 296 296 296 296 296 296 296 296 296 297 297 297 297 296 296 296 297 298 300 300 301 301 301 301 301 301 301 301 301 301 302 302 301 302 303 303 302 302 301 301 300
334 334 333 332 331 331 333 333 332 331 330 330 330 329 329 328 328 327 327 326 325 322 318 314 313 312 312 311 310 309 308 306 306 307 306 304 301 299 298 297 297 296 296 296 296 296 296 296 296 296 296 296 296 296 296 296 296 296 296 296 297 298 299 300 301 301 301 301 301 301 301 301 301 301 301 301 301 301 301 301 302 302 302 301 300
333 333 333 332 331 331 331 332 331 330 329 329 329 328 328 327 327 327 326 325 322 318 314 313 312 312 311 310 309 308 307 306 306 305 304 301 299 298 297 296 296 296 296 296 296 296 296 296 296 296 296 295 296 296 296 296 295 295 295 296 297 298 299 300 300 301 301 301 301 301 301 301 301 301 301 301 301 301 301 300 300 300 301 300 300
332 331 332 331 331 330 331 331 330 329 329 329 328 328 327 327 327 326 324 321 318 314 313 312 312 311 310 310 308 307 306 306 304 303 301 299 298 297 296 296 296 295 295 295 295 295 295 296 295 296 295 295 295 296 295 295 295 295 295 296 296 298 299 300 300 301 301 301 301 301 301 301 300 301 301 300 300 300 300 300 299 299 300 300 300
331 331 332 331 330 330 330 330 329 329 328 328 327 327 326 326 325 323 320 317 314 313 312 312 311 311 310 309 307 306 305 304 302 300 299 298 297 296 296 295 295 295 295 295 295 295 295 295 295 295 295 295 295 295 295 295 294 295 295 295 296 297 299 300 300 301 300 300 301 301 300 300 300 300 300 300 300 300 299 299 299 299 299 299 300
330 330 331 330 329 329 329 328 328 328 328 328 327 325 324 323 321 318 316 314 312 312 312 311 311 310 309 307 306 305 303 302 300 299 298 297 296 296 296 295 295 295 295 295 294 294 294 294 295 294 295 295 295 295 294 294 294 294 294 295 296 297 298 300 300 301 300 300 301 300 300 300 299 299 299 299 299 299 299 299 298 298 298 298 299
331 330 329 329 328 328 328 328 328 327 327 326 325 323 322 320 317 315 313 312 312 311 311 310 310 308 307 306 305 303 302 300 299 298 297 296 296 295 295 295 295 295 295 294 294 294 294 294 294 294 294 294 294 294 294 294 294 294 294 295 296 298 299 300 300 301 300 300 300 300 299 299 299 299 298 298 298 299 299 299 298 298 298 298 298
331 329 328 327 327 327 327 327 327 326 326 324 322 320 318 316 314 313 312 312 311 311 310 309 308 308 307 305 303 301 300 299 298 297 296 296 295 295 295 294 294 295 294 294 294 294 294 294 294 294 294 294 294 294 294 294 294 294 294 294 296 298 299 299 300 300 300 300 300 299 299 299 298 298 298 298 298 298 298 298 298 298 298 298 298
329 328 327 327 327 326 326 326 326 325 324 321 318 316 315 313 313 312 311 311 310 310 309 308 308 307 305 303 301 300 299 298 297 296 296 295 295 294 294 294 294 294 294 294 294 294 294 294 294 294 294 294 294 294 294 294 293 293 293 294 295 297 298 298 299 299 299 299 299 299 298 298 298 297 297 297 297 297 297 297 298 298 298 298 299
327 326 327 327 326 326 325 324 324 323 321 318 314 313 313 312 312 311 310 310 310 309 308 308 307 305 303 301 300 299 298 297 296 296 295 295 294 294 294 294 294 294 294 294 294 294 293 294 294 294 294 294 294 294 293 293 293 293 293 294 295 296 297 298 298 298 299 298 298 298 298 297 297 297 296 296 296 296 296 297 297 297 297 298 298
326 325 326 327 326 325 324 322 321 321 319 316 313 312 312 312 312 311 309 309 309 308 308 307 306 304 301 300 299 298 297 296 296 295 295 294 294 294 294 294 294 294 294 294 294 294 294 294 294 294 293 293 293 293 293 293 293 293 293 294 295 296 297 297 298 298 298 298 297 297 296 296 296 296 295 295 295 294 295 295 296 296 297 297 297
326 325 326 326 325 324 323 321 320 319 317 314 312 312 312 311 311 310 308 308 308 308 307 306 305 302 300 299 298 297 296 296 295 295 295 294 294 294 294 294 294 294 293 293 294 293 294 294 294 294 293 293 293 293 293 293 293 293 293 293 293 295 296 296 297 297 297 297 296 295 294 295 295 294 294 293 293 293 293 294 294 296 296 296 297
326 325 326 325 323 322 321 320 319 318 315 314 312 312 311 311 311 309 308 307 308 307 307 305 303 300 298 298 297 297 296 295 295 295 294 294 294 294 294 294 294 294 294 293 294 294 293 293 293 294 294 293 293 293 293 293 293 293 293 293 292 293 293 294 295 295 295 295 294 293 293 294 294 293 293 292 292 292 292 292 293 295 296 296 296
325 325 324 322 321 320 319 318 317 316 314 313 312 311 311 311 310 308 307 307 307 307 306 303 300 299 297 297 296 296 296 295 295 294 294 294 294 294 294 294 293 294 293 293 294 294 293 294 293 294 294 293 293 293 293 293 293 293 293 293 292 292 292 292 293 293 293 293 293 293 293 293 293 293 292 292 292 292 292 292 292 293 295 296 296
324 323 322 320 319 318 317 315 315 314 313 312 312 311 310 310 309 307 306 307 307 306 304 301 299 298 297 296 296 296 295 295 294 294 294 294 294 294 294 294 293 293 293 293 293 293 293 293 293 293 293 293 293 293 293 293 293 293 293 293 292 292 292 292 292 292 292 293 292 292 292 292 293 293 293 293 293 292 292 292 291 292 293 294 295
323 322 320 318 317 316 315 313 313 313 312 311 311 310 310 310 308 306 306 307 306 305 303 300 298 298 297 297 297 295 295 294 294 294 294 294 294 294 294 294 294 293 294 293 293 293 293 293 293 293 293 293 293 293 293 293 293 293 292 292 292 292 292 292 292 292 292 292 292 292 292 292 292 292 293 293 293 293 293 292 292 292 292 292 292
321 320 318 317 315 314 313 312 312 312 311 310 310 310 309 309 307 304 305 306 306 304 302 300 299 298 298 298 297 295 294 294 294 294 294 294 294 294 294 294 294 293 293 293 293 293 293 293 293 293 293 293 293 293 293 293 292 293 292 292 292 292 292 292 292 292 292 292 292 292 292 292 292 292 292 292 292 293 293 293 293 292 292 292 292
319 318 317 315 314 313 312 312 312 311 310 309 309 309 309 308 305 303 304 305 305 304 302 300 299 299 298 298 297 295 294 294 294 294 294 294 294 294 294 294 293 294 293 293 293 293 293 293 293 293 293 293 293 292 292 292 292 292 292 292 292 292 291 291 292 292 292 292 292 292 292 292 292 292 291 291 291 292 292 293 293 293 293 293 292
318 317 316 314 313 312 312 311 311 310 309 309 309 309 308 305 302 301 303 305 305 304 302 300 299 299 299 298 297 296 295 294 294 294 294 294 294 294 294 293 293 293 293 293 293 293 293 293 293 293 293 293 292 292 292 292 293 293 292 292 292 292 292 292 292 292 292 292 292 292 292 292 292 292 291 291 291 291 291 292 292 292 293 293 293
317 316 315 313 313 312 311 311 310 309 309 308 308 307 305 302 299 300 303 304 304 303 302 301 300 299 299 298 297 296 295 294 293 293 293 294 294 294 294 294 293 293 293 293 293 293 293 293 293 293 293 293 292 292 293 293 293 293 293 293 292 292 293 293 293 293 293 293 292 292 292 292 292 292 292 292 292 291 291 291 291 291 292 292 292
317 315 314 312 312 311 310 310 310 309 308 307 306 305 302 299 298 299 302 303 303 303 302 301 300 300 299 298 297 296 295 294 294 293 293 293 294 294 294 294 294 294 294 293 293 293 293 293 293 293 293 293 293 293 293 293 293 293 293 293 293 293 293 293 293 293 293 293 293 292 292 292 292 292 292 292 292 291 291 292 291 291 291 292 292
316 314 313 312 311 310 310 310 309 308 307 306 304 301 298 297 297 298 300 302 302 302 302 301 300 299 298 296 296 295 294 294 293 293 293 294 294 294 294 294 294 294 293 293 293 293 293 293 293 293 292 293 293 293 293 293 293 293 293 293 293 293 293 293 293 293 293 293 293 293 293 293 293 293 293 292 292 292 292 292 292 291 292 292 292
315 313 312 311 311 310 310 309 309 308 307 306 303 299 296 296 297 297 298 299 300 300 300 299 298 297 296 295 294 294 294 293 293 293 293 294 294 294 294 294 294 294 294 293 293 293 293 293 293 293 293 293 293 293 293 293 293 293 293 293 293 293 293 293 293 293 293 293 293 293 293 293 293 293 293 292 292 292 292 292 292 292 292 292 292
314 312 311 310 310 309 309 309 308 307 307 307 305 302 297 296 296 296 296 296 296 297 297 296 295 295 294 294 294 294 293 293 293 293 293 293 294 294 294 294 294 294 294 294 293 293 293 293 293 293 293 293 293 293 293 293 293 293 293 293 293 293 293 293 293 293 293 292 292 292 292 292 292 293 292 292 292 292 292 292 292 292 292 292 292
313 311 310 310 309 309 309 308 308 308 307 307 306 304 299 296 295 295 295 295 295 295 294 294 294 294 294 294 294 294 294 294 293 293 294 293 294 294 294 294 294 294 294 294 293 293 293 293 292 293 293 293 293 293 293 293 293 293 293 293 293 293 293 293 293 293 292 292 292 292 292 292 292 292 292 292 292 292 292 292 292 292 292 292 292
312 310 310 310 310 309 309 308 308 308 308 307 306 304 299 295 294 294 294 294 294 294 293 293 293 293 293 293 293 293 293 293 293 293 293 293 294 294 294 294 294 294 294 294 294 294 293 293 293 293 293 293 293 293 293 293 293 293 293 293 293 293 292 293 293 293 293 293 293 293 293 293 293 293 293 293 292 292 292 292 292 292 292 292 292
312 310 310 310 310 310 309 308 308 308 308 307 305 302 297 294 295 295 295 295 295 294 294 293 292 293 293 293 293 293 293 293 293 293 293 294 294 294 294 294 294 294 295 295 295 294 294 293 293 293 293 293 293 293 293 293 293 293 293 293 293 293 293 293 293 293 293 293 293 293 293 293 293 293 293 292 292 292 292 292 292 292 292 292 292
312 311 310 310 310 309 309 308 308 308 307 306 304 300 296 295 296 296 297 297 296 295 294 293 292 293 293 293 293 293 293 293 293 293 293 294 294 294 294 294 294 295 295 295 296 295 294 293 293 293 293 293 293 293 293 293 293 293 293 293 294 294 294 295 295 295 295 295 295 294 295 294 294 294 294 294 294 293 293 293 292 292 292 292 292
312 311 310 310 309 309 309 308 308 308 306 303 301 298 296 296 297 297 297 298 297 296 295 294 293 292 293 293 293 293 293 293 293 293 293 294 294 294 294 294 295 295 295 295 295 295 294 293 293 293 293 293 293 293 293 293 293 294 294 295 295 296 296 296 296 296 296 296 296 296 296 296 296 296 296 296 296 296 295 295 294 294 293 293 293
311 310 310 310 309 309 309 308 308 308 305 300 297 297 296 297 298 298 298 298 297 297 297 296 294 293 292 293 293 293 293 293 293 293 293 294 294 294 294 295 295 295 295 295 295 295 295 294 294 294 294 294 295 294 294 294 294 295 296 296 296 297 297 297 297 297 297 297 297 297 297 297 297 297 297 297 297 297 296 296 296 295 295 295 295
311 310 310 310 309 309 308 307 307 307 304 299 296 297 297 297 298 299 299 299 298 298 298 298 296 294 293 292 293 293 293 293 293 293 294 294 294 295 295 295 296 296 295 295 295 295 295 295 295 296 296 296 296 295 295 295 296 296 297 297 297 297 297 297 297 297 297 297 297 297 297 297 297 297 297 297 297 297 297 297 297 296 296 296 296
311 310 310 310 309 308 308 307 307 307 304 301 300 300 299 298 298 300 300 300 300 299 298 298 297 296 293 292 292 293 293 293 293 294 294 294 295 295 295 296 296 296 296 296 296 296 296 296 297 297 297 297 296 296 296 296 297 297 297 297 297 297 297 297 297 297 297 297 297 297 297 297 297 297 297 297 297 297 297 297 297 297 297 297 297
311 311 310 310 309 308 308 307 307 306 305 303 303 303 302 299 299 300 301 301 301 301 299 298 298 297 294 293 292 293 293 293 293 294 294 295 295 295 296 296 296 296 296 296 297 297 297 297 297 297 297 297 297 297 297 297 297 297 297 297 297 298 297 297 297 297 297 297 297 297 297 297 297 297 297 297 297 297 297 297 297 297 297 297 297
311 311 310 309 309 308 308 308 307 306 305 305 304 304 303 301 300 301 301 302 302 301 300 299 299 298 296 294 292 293 293 293 293 294 294 295 295 295 296 296 296 296 297 297 297 297 297 297 297 297 297 297 297 297 297 297 297 297 298 297 297 297 297 297 297 297 297 297 297 297 297 297 297 297 297 297 297 297 297 297 297 297 297 297 297
310 310 310 310 309 308 308 308 307 306 306 305 305 305 304 302 301 301 302 302 302 301 301 300 300 299 297 294 293 293 293 293 293 294 294 295 295 296 296 296 297 297 297 297 297 297 297 297 297 297 297 297 297 298 298 298 297 297 297 297 297 297 297 297 297 297 297 297 297 297 297 297 297 297 297 297 297 297 297 297 298 298 298 298 298
310 310 310 309 309 308 308 308 307 307 306 306 305 305 304 303 302 302 302 302 301 301 301 300 299 297 295 294 293 293 293 293 293 294 295 295 296 296 296 297 297 297 297 298 297 297 297 297 297 297 298 298 298 298 298 298 297 297 297 297 297 297 297 297 297 297 297 297 297 297 297 297 297 297 298 298 297 298 298 298 298 298 298 298 298
310 310 310 309 309 308 308 307 307 307 306 306 306 305 304 303 302 302 302 302 301 301 301 299 296 294 294 293 293 292 293 293 293 294 295 296 296 297 297 297 297 298 298 298 298 298 298 297 297 297 298 298 298 298 297 297 297 297 297 297 297 297 297 297 297 297 297 297 298 298 297 298 298 297 298 298 298 298 298 298 298 298 298 298 298
310 309 309 309 308 307 307 307 307 306 306 306 305 304 303 303 303 302 302 302 301 301 299 296 293 293 293 293 292 293 293 294 295 296 296 297 297 297 297 297 297 298 298 298 298 298 298 297 298 298 298 298 298 298 298 298 298 298 298 298 298 298 298 298 298 298 298 298 298 298 298 298 298 298 298 298 298 298 298 298 298 298 298 298 298
309 308 308 308 307 306 306 306 306 306 306 305 304 303 303 303 303 302 302 302 302 301 297 294 292 292 293 293 294 295 296 297 297 297 297 297 297 297 297 296 297 298 298 298 298 298 298 298 298 298 298 298 298 298 298 298 298 298 298 298 298 298 298 298 298 298 298 298 298 298 298 298 298 298 298 298 298 298 298 298 298 298 298 298 297
309 308 308 307 306 306 306 306 305 305 305 304 304 303 303 303 303 302 302 302 301 299 295 292 292 293 294 296 297 298 298 298 298 298 298 298 298 298 297 297 298 298 298 298 298 298 298 298 299 299 299 299 299 299 299 299 299 299 299 299 299 298 298 298 298 298 298 298 298 298 298 298 298 298 298 298 298 297 298 297 297 297 297 297 297
308 308 306 306 306 306 305 305 305 304 304 304 304 303 303 303 303 302 302 301 299 296 293 293 295 297 298 298 299 299 299 299 299 299 299 299 299 298 298 298 299 299 299 299 299 299 299 299 299 299 299 299 299 299 299 299 299 299 298 298 298 298 298 298 298 298 298 298 298 298 298 298 298 297 298 297 297 297 297 297 297 296 296 296 296
308 306 305 305 305 305 304 304 304 304 304 304 303 303 303 303 302 302 302 300 297 294 293 295 298 299 299 299 299 299 299 300 299 299 299 299 299 299 299 299 299 299 299 299 299 299 299 299 299 299 299 299 299 299 299 299 299 298 298 298 298 298 298 298 298 298 298 298 298 297 297 297 297 297 297 297 297 297 296 296 296 296 296 296 295
306 305 304 304 304 304 304 304 304 304 303 303 303 303 302 302 302 301 300 297 294 293 295 297 299 299 299 299 299 300 300 299 299 299 299 299 299 299 299 299 299 299 299 299 299 300 300 300 300 300 300 299 299 299 299 298 298 298 298 298 298 298 298 298 298 298 298 298 297 297 297 297 297 297 296 296 296 296 295 295 294 294 293 292 291
305 304 304 304 304 304 304 304 303 303 302 302 301 301 301 301 300 299 297 295 294 296 298 299 299 299 299 299 299 299 299 299 299 299 299 299 299 299 299 300 300 300 300 300 300 300 300 300 300 299 299 299 299 298 298 298 298 298 298 298 298 298 298 298 298 298 297 297 297 297 297 296 296 296 295 295 294 293 292 291 289 288 287 286 286
304 304 304 304 304 304 303 303 303 302 300 298 297 297 297 297 297 296 296 296 298 299 299 299 299 299 299 299 299 299 299 299 299 299 299 299 299 299 300 300 300 300 300 300 300 300 300 299 299 299 298 298 298 298 298 298 298 298 298 298 298 298 298 297 297 297 297 297 296 296 296 295 295 294 293 292 290 289 287 286 285 285 284 283 283
304 304 304 304 303 303 303 302 301 298 296 295 294 294 294 294 295 296 298 299 299 299 299 299 300 299 299 299 299 299 299 300 299 300 300 299 300 300 300 300 300 300 300 300 300 300 299 299 299 298 298 298 298 298 298 298 298 298 298 298 298 298 297 297 297 297 297 296 296 295 295 293 292 290 288 287 286 285 284 284 283 283 283 282 282
Wind_Speed
18 16 15 18 18 18 19 17 16 15 16 17 18 22 22 17 12 12 9 5 2 1 1 3 6 8 7 5 5 7 9 9 9 9 8 8 7 6 7 8 8 9 9 10 11 12 11 12 15 16 15 16 18 20 21 21 22 22 23 24 25 26 26 25 26 26 26 29 28 23 20 20 25 30 32 31 30 28 27 27 27 28 29 29 28
17 14 15 18 19 20 20 18 17 17 19 20 20 23 22 16 13 10 6 3 1 0 2 4 6 7 5 3 7 9 9 9 9 9 8 7 6 7 8 8 8 9 10 11 13 12 12 14 16 17 17 18 20 21 22 22 23 23 24 26 26 27 27 25 24 25 28 28 27 26 24 21 23 30 33 33 32 31 31 30 29 30 30 31 30
15 13 16 17 18 20 19 17 17 18 20 22 22 23 21 15 10 6 3 3 2 1 3 4 5 5 3 6 9 10 9 9 9 8 7 7 7 7 8 8 9 10 11 13 13 13 13 15 17 18 18 20 21 23 23 24 24 25 26 27 27 28 27 21 18 20 24 25 23 24 28 26 26 31 34 34 33 32 32 33 33 32 33 32 31
16 15 17 18 18 18 15 15 17 18 20 22 22 21 17 11 7 5 4 3 2 3 3 4 4 2 5 9 11 11 10 10 9 7 7 7 7 7 8 9 10 11 13 13 14 13 15 17 19 19 20 21 23 24 24 25 26 26 28 28 29 30 27 20 17 16 18 22 20 19 21 23 23 27 32 35 36 34 32 33 33 33 34 32 29
15 15 17 19 18 15 12 14 16 17 19 21 20 17 12 8 7 7 5 4 3 3 4 2 1 6 10 11 12 11 10 9 8 7 8 8 7 8 9 11 11 12 14 14 14 15 17 19 20 20 21 22 24 25 25 26 26 27 28 29 30 32 31 27 24 18 16 19 19 17 17 19 20 24 30 33 34 36 37 35 32 31 32 31 27
12 16 20 19 15 13 14 16 16 17 19 19 17 14 10 9 8 6 5 5 4 4 3 2 6 10 12 13 12 11 10 9 8 8 9 9 9 10 11 11 12 13 14 15 16 17 18 19 20 21 22 23 24 24 25 25 26 27 29 30 31 32 32 33 31 25 21 20 18 17 18 19 21 25 31 33 31 34 39 39 36 34 32 30 27
13 16 19 16 13 13 17 18 17 18 18 16 14 13 11 9 7 6 6 6 5 4 3 7 11 13 13 13 12 10 8 8 8 9 10 10 11 11 11 11 12 14 15 16 17 18 19 20 20 21 22 23 24 24 24 25 27 28 29 30 31 32 32 33 33 29 26 23 19 18 18 20 24 27 30 34 34 33 37 38 38 39 37 31 26
16 15 15 15 16 19 20 19 18 18 17 16 15 12 10 8 7 8 8 7 5 5 7 10 13 14 14 12 10 9 9 9 10 10 11 12 12 12 12 12 13 15 16 18 19 19 20 20 21 21 22 23 23 24 24 25 27 27 28 29 30 31 32 33 33 30 25 22 19 18 19 21 28 33 32 35 38 36 36 35 34 35 37 32 25
15 15 15 17 21 24 23 21 19 18 17 15 12 10 9 9 10 10 9 7 7 9 11 12 14 15 13 11 10 10 11 12 12 12 12 13 13 13 13 14 15 16 18 19 20 20 20 20 20 21 21 22 23 23 24 25 26 27 28 29 30 31 31 32 32 28 22 20 19 19 22 25 31 36 36 37 37 35 35 35 32 30 32 32 27
15 18 19 20 23 25 24 22 20 19 17 13 11 11 11 11 11 10 9 9 11 13 14 15 14 13 11 11 11 12 13 14 14 13 13 14 14 13 14 16 16 18 19 19 20 20 20 20 20 20 21 21 22 23 23 24 26 27 28 28 29 30 30 31 31 26 18 18 19 20 24 28 29 32 35 36 36 35 34 32 31 30 30 32 30
18 21 21 22 25 25 24 23 21 18 15 13 12 12 11 11 10 10 11 13 15 16 17 16 14 12 11 11 12 14 15 15 15 14 14 14 14 14 15 17 18 19 19 19 19 20 20 20 20 20 21 21 21 22 23 23 25 26 26 27 28 29 30 30 31 27 18 16 18 22 26 27 27 29 33 36 37 36 33 30 30 30 28 29 30
19 21 23 25 25 24 23 22 19 17 15 13 12 11 10 10 11 13 14 16 17 17 17 15 14 13 12 12 14 15 16 16 15 15 15 14 14 15 17 18 19 19 18 19 19 20 20 20 20 20 21 21 21 22 22 23 24 25 25 26 26 28 29 28 29 28 23 19 19 24 27 27 27 29 33 36 37 36 35 32 31 29 25 25 25
20 21 24 27 27 26 24 21 18 17 14 12 10 9 10 12 14 16 17 17 17 17 16 16 15 14 13 14 16 17 17 16 15 15 15 15 15 16 18 19 19 18 18 18 19 20 20 20 20 20 20 20 21 21 22 22 23 23 24 25 25 26 27 27 27 27 26 24 23 25 28 28 29 31 32 34 35 35 36 35 34 32 26 23 21
25 26 27 29 28 25 22 19 17 16 14 13 12 11 13 15 16 17 17 18 18 18 18 18 16 14 14 16 18 18 18 17 15 15 15 16 16 17 18 19 18 18 18 18 19 19 19 19 20 20 20 20 20 21 21 21 21 22 23 24 25 25 26 26 26 26 27 27 26 27 28 28 29 31 31 33 33 35 35 34 34 34 28 23 21
27 29 28 27 24 21 18 17 17 15 14 15 15 15 16 17 18 18 18 19 19 20 19 18 16 16 17 18 19 19 18 17 15 15 16 16 16 17 18 18 18 18 18 18 18 19 19 19 19 19 19 20 20 20 20 20 20 21 21 22 23 24 25 25 25 26 26 26 26 26 26 27 28 29 30 31 32 33 34 31 31 31 26 24 25
26 29 27 25 22 20 19 18 17 16 16 17 18 18 19 19 19 19 20 20 20 20 19 17 16 18 18 18 19 20 19 17 16 16 16 16 16 17 18 18 18 17 17 17 17 18 18 18 18 18 19 19 19 19 19 19 19 20 20 21 21 22 23 23 23 24 24 24 24 25 25 26 26 27 29 30 32 34 34 33 34 33 28 26 29
27 28 26 24 24 22 21 20 17 17 18 20 20 20 20 19 19 19 21 22 22 20 19 17 17 18 20 20 19 20 20 18 17 16 16 16 16 16 17 17 17 17 16 17 17 16 17 17 17 17 17 17 17 17 17 18 18 19 20 20 20 20 19 19 20 20 21 21 22 23 24 24 25 27 29 30 33 35 36 36 37 36 32 31 32
26 26 24 24 24 23 21 19 18 18 20 21 21 20 20 19 19 19 21 22 23 21 18 18 19 19 20 20 19 19 19 18 17 16 16 15 15 16 16 15 16 16 16 16 15 15 15 16 16 16 16 16 16 16 16 16 17 18 19 19 20 20 19 18 18 18 18 20 21 22 23 24 25 27 29 31 33 36 36 37 37 34 30 29 32
25 24 24 24 23 21 19 17 18 20 21 21 21 20 20 20 19 20 22 23 22 21 19 20 21 20 20 19 18 18 18 18 17 16 16 15 15 15 14 14 15 15 15 14 14 14 14 14 14 14 14 14 14 14 14 15 16 17 17 18 19 20 19 19 18 18 18 19 21 22 23 24 25 27 29 31 34 35 36 36 37 35 31 27 28
24 24 24 23 20 18 17 17 19 21 21 22 21 20 19 19 19 22 24 24 23 21 21 21 22 22 21 19 18 17 18 18 17 16 15 15 14 14 13 13 13 14 14 13 13 12 12 12 12 12 13 13 13 13 13 14 15 15 16 17 18 18 18 18 18 18 18 19 20 22 23 24 26 27 28 30 31 33 35 36 36 36 34 32 32
25 24 23 21 19 18 19 20 21 21 21 21 21 20 18 17 19 23 25 25 24 22 22 22 23 23 21 19 18 18 18 18 17 16 15 14 13 13 12 12 13 13 12 12 11 11 10 10 10 10 11 11 11 11 12 12 13 14 14 15 16 16 16 17 17 18 19 20 21 23 23 24 26 27 28 28 29 30 31 33 34 36 35 35 36
24 22 20 20 20 21 22 22 23 23 22 20 20 20 18 17 20 24 25 25 24 23 23 23 23 23 21 19 19 19 18 17 16 16 15 13 12 12 12 11 12 11 11 11 10 9 9 9 9 9 10 10 10 10 11 11 12 12 13 13 14 14 15 15 16 17 19 20 21 23 24 25 26 27 27 28 27 28 29 29 30 32 34 34 35
23 21 20 21 22 23 24 24 25 24 22 21 20 20 19 19 21 24 26 25 24 24 23 23 23 23 21 20 20 19 18 17 16 15 14 13 12 11 11 11 10 10 10 9 9 8 8 8 8 9 9 9 9 9 9 10 10 11 12 12 12 13 13 14 15 16 18 19 21 22 23 24 25 26 27 27 26 26 27 27 27 28 29 31 34
22 21 21 22 23 24 25 26 25 23 22 21 20 20 20 22 24 26 26 26 25 25 24 24 24 23 22 20 20 19 18 17 15 14 13 12 11 10 10 10 9 9 9 8 8 8 8 8 8 8 8 8 8 8 8 9 9 10 10 11 11 12 12 13 14 15 17 19 20 20 21 22 23 24 25 25 26 26 26 26 26 26 26 27 30
23 22 22 24 25 26 26 26 24 22 21 21 20 21 23 24 26 27 27 27 26 25 25 25 24 23 22 21 20 19 18 16 15 14 13 12 10 9 9 9 8 8 8 8 8 8 8 8 7 7 8 8 7 8 8 8 9 9 10 10 10 11 12 13 14 15 16 18 19 19 20 20 21 22 23 24 25 27 27 26 27 27 26 26 28
23 23 24 26 27 27 27 26 23 21 20 20 19 20 23 26 27 28 27 27 26 25 25 25 23 22 21 21 20 19 18 16 15 14 13 12 11 9 9 8 7 7 7 7 7 7 7 7 7 7 7 6 6 6 7 8 8 9 9 10 10 11 12 12 13 15 16 17 18 18 19 19 20 20 21 23 25 26 27 27 28 29 28 28 29
23 23 25 28 28 28 27 26 24 22 22 21 20 21 23 25 26 27 27 27 26 25 24 24 23 22 21 20 19 18 17 16 16 14 14 13 11 10 9 8 7 7 7 7 7 6 6 6 6 5 5 4 5 5 6 7 8 9 9 10 10 11 12 12 13 14 15 16 17 18 18 19 20 21 22 23 24 25 26 27 28 28 30 30 30
22 24 26 29 29 28 26 25 25 25 24 22 21 21 23 24 24 24 24 24 24 24 24 23 22 21 20 20 19 18 17 17 15 14 14 13 12 10 9 8 7 7 7 6 6 6 5 5 4 4 3 3 4 5 6 6 7 8 9 10 10 11 12 13 13 14 15 16 16 17 18 19 20 21 22 22 23 23 24 26 26 27 29 30 30
23 25 28 30 30 28 26 26 26 26 24 22 20 19 21 21 21 20 20 19 18 18 19 20 20 19 18 18 17 17 16 15 15 14 13 13 12 11 9 8 8 7 6 6 6 5 4 4 3 2 2 3 3 4 5 6 7 8 9 9 10 11 12 13 14 15 15 16 17 17 18 19 19 20 21 22 22 23 23 24 25 27 28 29 29
25 27 30 31 30 29 27 27 26 25 24 23 21 20 20 20 18 18 18 17 16 14 13 14 16 16 16 15 14 13 12 13 13 13 13 13 12 11 10 9 8 7 5 5 5 4 3 3 2 2 2 2 3 4 5 6 6 7 8 9 10 11 12 13 14 14 15 16 17 18 19 19 20 20 21 21 22 23 24 25 26 26 27 29 29
28 30 31 31 30 30 29 28 26 25 23 22 21 22 23 23 20 18 18 17 17 16 14 14 14 14 14 14 14 13 13 14 14 13 13 13 12 11 10 9 7 6 6 5 4 3 3 3 2 2 2 2 3 4 4 5 6 7 8 9 10 11 12 12 13 14 14 15 17 18 19 20 20 21 22 22 23 23 24 24 25 26 27 27 28
29 31 31 30 30 30 30 28 26 25 23 22 22 23 26 26 23 21 20 19 19 18 17 17 16 16 15 15 15 15 15 15 15 14 13 12 11 11 10 8 7 7 6 5 4 3 3 3 2 2 2 3 3 4 4 5 6 7 7 8 9 10 11 12 12 13 14 15 16 17 18 19 20 21 22 22 23 24 24 25 25 26 26 27 27
28 30 30 30 31 31 30 27 26 25 24 23 24 25 27 27 26 26 25 23 21 19 18 17 17 16 16 16 16 15 15 15 15 14 13 12 12 11 10 9 8 7 6 5 4 3 2 2 2 2 2 3 3 3 4 4 5 6 7 8 9 10 10 11 12 13 14 15 16 17 18 19 20 21 21 22 23 24 25 25 25 25 26 26 27
25 26 28 30 31 31 29 27 26 25 24 24 26 27 27 27 27 28 28 26 23 21 19 18 17 16 16 16 16 15 15 15 15 14 14 13 12 11 10 9 8 7 6 5 4 3 3 2 2 2 2 3 3 3 4 4 5 6 7 8 9 9 10 11 12 13 14 15 16 16 17 18 19 20 21 21 22 23 24 25 25 25 25 26 26
25 24 25 26 29 29 28 27 26 25 25 25 27 28 27 26 27 28 27 25 24 22 19 18 17 16 16 15 15 15 16 16 15 14 14 13 12 11 10 9 8 7 6 5 5 4 4 3 3 3 3 3 3 3 3 4 4 6 7 8 9 9 10 10 11 12 13 14 15 16 17 18 19 20 20 21 22 23 24 24 25 25 25 25 26
24 24 24 24 26 26 26 26 25 24 24 25 27 26 25 25 27 27 24 22 21 20 18 17 16 15 15 15 15 15 16 16 15 15 14 13 12 11 10 9 7 7 6 6 6 6 5 5 4 4 3 3 3 3 3 4 5 6 7 8 8 8 8 9 10 11 12 12 14 15 16 17 18 19 20 21 22 23 24 24 25 25 25 25 25
23 23 24 25 25 24 24 25 24 22 23 24 25 24 23 24 25 25 23 21 19 18 17 16 15 15 15 15 16 17 17 17 17 16 14 13 12 11 10 9 8 7 7 7 7 7 6 6 5 5 4 4 3 4 4 5 5 6 6 6 6 7 7 8 9 10 11 12 14 15 16 17 18 19 20 21 22 23 24 25 25 26 26 26 26
21 21 22 23 24 24 24 24 23 22 23 23 23 23 22 22 23 23 22 21 19 18 17 16 15 14 15 15 17 17 18 18 18 17 15 14 12 11 10 9 9 8 8 8 8 8 6 5 5 4 4 4 4 4 4 4 4 3 4 5 6 6 8 9 11 12 13 14 16 17 19 20 21 22 23 24 24 25 26 26 26 27 27 27 28
20 20 21 22 22 23 23 23 23 23 23 23 23 22 22 21 22 22 20 19 19 18 17 15 14 13 14 15 17 18 19 18 18 16 15 13 12 11 10 10 9 9 9 9 8 7 6 5 5 4 3 3 2 2 1 0 2 3 5 6 8 9 11 12 13 15 16 17 19 21 22 24 24 25 26 26 26 27 28 28 28 28 28 29 29
20 22 23 23 23 23 22 22 23 23 23 23 23 22 22 22 22 21 19 18 18 17 15 14 13 13 14 16 17 18 18 17 16 15 14 13 12 11 11 10 10 10 9 9 8 6 6 6 6 5 4 4 3 3 4 4 6 7 8 10 11 13 14 15 17 18 20 21 23 24 25 26 26 27 28 28 28 28 29 30 30 30 30 31 31
21 23 24 24 24 24 23 23 23 23 22 22 22 22 23 23 22 19 18 17 16 15 13 12 12 13 15 16 16 16 16 15 14 14 14 13 12 12 11 11 11 10 10 9 8 7 6 6 7 7 6 5 5 6 6 8 9 11 12 13 15 16 18 19 20 21 23 24 25 26 26 27 27 28 28 28 28 28 29 30 31 31 32 32 32
22 23 24 23 23 23 23 23 24 23 22 22 22 22 23 23 21 19 17 16 15 13 12 12 13 14 16 16 16 15 15 14 14 14 13 13 13 13 12 11 11 11 11 10 9 8 7 7 8 8 7 7 8 9 10 11 12 14 15 16 17 18 20 21 22 23 24 25 25 26 26 26 26 26 26 26 27 28 29 30 32 32 33 33 34
23 23 23 22 22 22 22 23 23 23 22 22 22 22 23 22 20 18 17 16 14 13 13 13 15 16 17 17 16 16 16 15 15 14 14 13 13 12 12 12 11 11 11 10 9 8 8 8 8 8 9 9 10 11 12 13 14 15 17 18 19 20 21 22 23 24 25 25 25 25 26 26 26 27 27 28 29 29 30 31 32 33 34 35 35
23 23 23 22 22 22 22 22 22 21 21 21 21 22 22 20 19 18 17 16 15 14 14 15 17 18 18 18 18 17 17 16 15 13 12 11 10 9 9 10 10 10 10 10 9 8 8 8 9 9 10 11 12 13 14 15 16 17 19 20 21 22 23 23 24 25 25 26 26 26 27 27 28 29 30 31 32 32 33 34 34 35 35 36 36
23 23 23 23 22 21 21 21 21 20 21 21 22 22 21 20 19 18 17 16 15 15 16 18 19 20 20 19 19 17 16 14 12 11 10 9 8 7 7 8 9 9 9 9 8 9 9 9 10 11 12 13 14 15 17 18 19 20 21 21 22 22 22 23 24 25 26 27 28 29 29 30 30 31 32 33 34 35 35 36 36 36 36 37 37
24 23 23 23 23 22 23 22 22 22 22 22 22 22 21 20 20 19 17 16 16 17 19 21 23 22 21 19 17 16 14 13 11 10 9 9 8 8 8 9 9 9 9 9 10 10 10 11 12 13 14 15 16 17 19 20 20 20 20 20 20 20 21 22 24 25 27 29 30 31 31 32 32 33 34 35 35 36 36 37 37 38 38 38 38
23 23 23 24 24 25 25 24 24 23 22 21 21 20 20 20 20 19 18 17 18 20 22 24 24 21 19 17 16 14 13 12 11 10 10 10 10 9 9 9 9 9 10 10 10 11 11 12 12 13 14 15 17 18 18 18 19 18 18 18 19 19 21 23 25 27 29 31 32 32 33 33 34 34 35 36 36 36 37 37 38 38 38 38 38
23 24 24 25 25 25 25 24 23 23 22 20 20 20 20 20 20 19 19 19 21 23 25 24 22 20 17 16 15 14 13 12 11 11 11 11 11 11 10 10 10 10 10 10 11 11 11 11 12 13 14 15 16 17 17 17 17 18 18 19 20 22 24 26 27 29 30 31 32 33 33 34 34 35 35 36 36 36 36 37 37 36 36 36 36
24 24 24 24 24 24 23 22 21 21 20 19 19 20 20 20 20 20 20 22 23 24 23 22 21 19 17 15 15 14 13 12 12 12 12 12 11 11 11 10 10 10 10 11 10 10 10 11 12 14 14 15 16 16 17 17 18 19 20 21 23 25 27 28 29 30 31 32 33 33 33 34 34 35 35 35 35 35 35 35 35 35 34 34 34
24 23 23 23 22 21 20 20 19 19 19 19 20 20 20 20 21 22 23 24 24 23 22 21 19 17 16 15 14 14 13 13 13 12 12 11 11 10 9 9 10 11 10 10 9 9 10 11 13 13 14 14 15 16 17 18 19 21 22 24 25 27 29 30 31 31 32 33 33 34 34 34 34 34 35 35 35 35 35 34 34 33 33 32 32
23 22 22 21 20 19 19 19 19 19 19 20 20 20 20 22 24 25 24 23 21 20 20 19 17 16 15 14 14 13 12 12 12 11 11 10 9 9 9 10 11 10 9 9 10 10 11 11 12 13 14 15 17 18 19 20 21 23 25 26 28 29 30 31 32 32 32 33 33 33 33 34 34 34 34 34 34 33 33 33 32 32 31 30 30
Wind_Direction
216 215 199 196 203 205 206 201 187 188 203 203 198 196 188 175 170 173 171 168 174 149 16 351 349 351 355 22 81 98 96 92 84 78 71 62 61 68 75 70 56 55 60 61 60 58 58 61 61 60 58 56 55 54 52 51 51 51 47 43 39 34 31 27 22 20 19 17 15 9 3 5 9 10 10 8 5 3 1 359 356 354 354 354 354
212 207 196 195 199 201 201 196 186 185 194 198 196 192 185 171 165 168 166 170 175 328 333 337 344 347 1 69 109 109 104 96 87 81 72 68 76 82 79 69 61 66 68 67 67 64 64 67 67 66 63 61 61 57 55 56 54 52 48 43 39 33 28 26 22 18 17 17 14 12 9 6 6 8 10 9 8 7 6 4 1 360 359 357 356
212 204 198 198 200 200 199 194 189 186 187 190 191 189 180 164 159 167 184 196 198 292 309 328 340 351 50 115 121 115 107 96 87 82 79 82 88 85 78 74 72 75 74 71 71 69 70 72 71 69 66 63 62 58 55 55 53 49 46 42 38 32 27 23 18 13 13 13 9 11 12 10 8 10 11 13 11 7 6 6 6 4 2 359 357
214 207 201 201 202 199 196 195 193 187 183 185 186 183 172 160 168 191 204 218 248 281 297 327 343 45 116 128 125 115 105 95 88 86 91 95 92 85 83 84 82 81 78 77 77 76 76 77 75 71 68 64 60 57 55 53 50 47 43 40 37 33 28 23 21 14 9 10 7 7 8 5 8 11 12 15 16 13 9 7 7 8 5 2 358
211 208 204 201 198 196 200 201 195 188 186 185 181 177 172 173 187 195 210 241 263 279 297 325 86 126 131 131 123 113 104 97 94 99 104 101 94 91 91 90 86 84 82 81 82 82 80 79 77 73 67 63 60 57 54 52 49 46 42 38 36 34 30 27 28 24 15 13 9 6 5 4 7 10 11 13 13 13 13 12 11 9 7 4 360
206 206 204 195 186 195 203 198 190 188 188 182 177 178 182 184 188 198 224 245 259 277 277 159 139 138 135 128 118 110 104 101 104 111 112 106 100 97 94 91 88 86 86 86 85 83 82 79 77 73 67 63 60 56 54 51 48 44 41 38 36 34 31 29 29 27 23 19 12 6 6 6 7 10 12 13 11 9 12 14 15 16 13 7 2
197 204 200 185 178 196 199 190 182 183 184 182 182 186 185 185 195 217 231 239 254 256 192 152 144 140 133 125 117 112 108 110 116 120 117 110 105 100 95 93 92 91 90 89 86 82 80 78 75 70 66 62 59 57 54 50 47 43 40 38 36 35 33 30 29 29 25 19 13 9 7 8 11 13 13 15 15 13 11 11 12 16 17 12 3
199 204 192 181 184 189 188 184 180 181 185 187 188 188 188 198 217 231 235 239 234 196 164 154 147 139 132 127 124 121 119 121 125 126 120 111 106 103 99 97 96 95 93 89 85 81 78 76 72 68 65 61 59 56 53 50 46 43 40 39 37 35 34 31 28 28 25 17 13 12 10 11 16 18 16 15 16 15 13 11 8 9 13 12 6
204 199 184 185 188 183 180 180 179 183 188 188 189 196 207 218 227 231 231 221 191 168 159 156 149 141 137 134 131 128 128 129 128 124 116 110 107 105 103 102 100 98 94 89 85 81 77 75 72 69 65 62 59 56 53 49 45 43 40 39 38 36 35 32 30 28 23 16 13 13 15 16 17 18 18 16 15 13 12 12 8 5 8 10 9
200 190 183 185 184 179 178 180 181 184 188 192 204 213 213 216 221 220 207 182 170 164 157 152 147 144 143 140 136 135 135 132 127 121 115 110 108 106 105 106 104 100 96 91 87 83 79 76 74 72 69 65 61 58 54 50 46 43 40 38 38 37 36 35 32 29 22 16 15 16 17 18 17 16 16 16 15 14 12 10 8 7 7 8 9
194 186 183 180 178 178 180 182 182 184 189 199 209 210 209 212 209 195 178 168 164 159 153 149 147 146 144 141 139 139 137 132 127 123 116 109 107 107 109 110 107 103 98 94 90 85 82 80 77 74 71 67 63 59 55 52 48 45 42 38 37 37 38 38 36 34 27 20 19 20 20 18 16 16 16 16 15 14 12 9 7 8 7 5 3
190 187 181 177 179 182 182 182 184 188 195 204 208 208 208 203 188 174 167 164 160 155 152 152 150 147 145 143 142 142 139 133 129 123 115 110 108 109 112 112 108 104 100 96 92 87 84 81 78 75 72 68 65 61 57 53 49 46 44 41 39 38 38 39 38 37 33 28 24 23 22 21 18 17 16 15 15 14 13 12 10 7 6 2 358
187 186 180 179 181 181 181 185 189 191 195 199 197 199 196 182 170 164 162 160 159 156 155 154 151 149 148 147 147 145 140 134 129 122 115 112 112 112 114 112 109 106 102 98 94 90 86 83 79 76 72 69 66 63 59 55 50 47 45 43 42 41 40 39 38 37 36 34 31 27 25 23 21 19 17 16 14 14 15 14 12 11 8 3 357
186 182 180 182 182 181 183 190 192 189 190 189 182 180 180 170 163 162 161 161 161 158 156 156 153 151 151 152 151 146 139 135 130 123 118 114 114 115 115 112 110 107 104 99 95 92 88 85 81 78 74 71 67 63 60 56 52 48 45 42 42 42 40 39 37 36 35 34 32 30 26 23 20 17 16 16 15 16 17 14 11 12 12 6 2
184 180 181 185 185 185 190 193 190 187 189 188 178 172 172 167 163 164 162 161 161 158 157 158 155 152 154 156 152 145 139 136 131 125 121 117 116 117 115 113 111 108 103 100 96 92 88 85 82 79 75 71 67 63 60 57 54 51 47 43 41 40 38 36 35 34 34 32 30 28 24 21 18 17 17 18 17 19 20 17 12 12 11 9 11
184 181 182 187 189 194 196 193 190 188 188 184 173 167 168 166 165 164 161 161 161 160 160 160 156 154 157 157 153 146 141 138 133 128 123 119 118 117 114 112 110 106 103 99 95 91 88 85 82 78 75 71 67 63 61 59 56 54 52 48 45 42 37 33 32 31 31 30 28 26 23 21 20 20 21 20 19 20 21 20 18 17 12 10 13
186 186 188 192 194 197 198 198 197 191 184 178 171 167 167 166 165 163 162 163 163 162 162 160 157 156 157 158 154 146 141 139 135 130 125 122 119 116 113 111 108 105 102 98 94 91 88 85 81 78 75 71 68 64 60 59 57 55 55 52 50 47 42 35 32 30 29 29 27 26 26 25 24 25 24 22 19 20 20 19 18 19 15 12 12
186 189 193 198 196 194 198 202 197 186 180 177 174 169 166 164 163 165 166 166 164 164 163 159 157 158 158 157 154 148 143 140 137 133 129 125 120 115 111 110 108 105 102 98 96 92 88 84 81 78 75 71 68 64 60 57 55 53 52 51 49 46 43 38 34 31 29 29 29 29 30 28 27 27 25 22 20 20 21 20 18 17 16 13 12
189 192 196 198 195 194 197 197 187 181 179 178 174 169 164 163 164 166 168 168 166 165 164 158 156 157 156 155 154 151 146 142 139 136 132 127 122 117 113 111 109 107 104 100 97 93 88 85 82 79 75 70 66 63 59 55 52 50 48 47 46 43 39 37 34 30 30 30 30 31 32 30 29 28 26 24 23 21 21 20 19 18 17 13 12
193 197 198 196 194 193 191 186 182 181 178 173 170 168 166 165 166 166 168 170 169 166 163 159 156 155 155 155 156 155 150 145 142 140 134 128 124 120 117 114 112 110 107 103 98 94 90 85 82 78 74 70 64 59 56 53 50 47 44 43 43 40 37 35 31 29 29 29 29 31 32 30 29 29 27 26 25 23 22 21 20 20 19 17 16
193 199 198 193 189 185 180 179 180 177 173 169 169 170 170 171 170 168 169 171 170 165 162 160 158 156 156 157 158 156 151 147 145 141 135 130 126 123 120 118 117 113 110 106 100 95 92 87 82 77 72 68 62 57 53 49 47 45 42 41 40 37 34 33 30 28 27 27 28 29 29 28 28 28 27 25 24 25 25 23 21 20 20 20 19
193 197 193 187 182 176 174 177 177 172 171 173 174 174 175 176 174 171 171 172 171 166 163 163 162 160 158 157 156 155 152 149 147 143 137 133 128 124 121 121 120 116 113 109 103 98 95 90 84 77 71 66 60 56 52 47 44 42 40 39 38 34 31 29 27 27 27 26 26 26 25 25 25 24 24 24 23 24 25 26 24 22 21 21 21
190 191 187 182 178 174 173 175 175 173 173 176 178 178 176 175 174 173 173 174 172 168 166 167 165 162 159 157 156 156 154 152 149 146 142 137 131 127 124 123 120 116 114 111 106 102 98 91 85 78 71 65 59 54 51 46 43 40 38 37 35 32 30 27 25 26 25 24 25 24 22 22 21 20 20 21 21 23 24 25 26 25 22 22 23
187 186 184 181 176 174 174 174 174 175 175 176 178 178 176 173 173 173 174 176 174 171 169 169 168 164 161 160 160 159 156 154 153 152 148 142 137 133 128 123 119 115 114 111 108 104 98 91 85 77 69 64 58 52 49 45 42 40 37 35 33 30 29 27 25 25 25 24 24 23 20 19 17 16 16 16 17 21 22 22 24 26 24 23 24
185 184 183 179 177 175 173 173 174 175 175 176 176 177 175 172 170 172 175 177 177 174 171 171 171 169 166 164 164 162 160 159 159 158 154 149 145 139 133 127 121 116 113 112 109 106 99 90 84 76 67 61 54 48 44 41 39 38 35 32 31 29 27 26 24 24 24 24 23 22 20 18 17 14 13 14 16 18 18 18 21 23 23 25 28
184 184 181 178 177 175 172 173 174 174 173 173 174 175 174 171 169 171 174 178 179 177 175 174 175 174 170 168 167 165 163 165 166 164 160 156 151 147 141 134 126 119 116 115 111 106 100 91 83 75 66 58 52 45 40 35 34 32 29 27 27 26 25 23 21 21 21 21 20 20 18 17 17 15 13 15 17 16 14 16 18 18 18 22 25
184 181 178 177 176 174 173 174 173 171 171 170 170 173 172 170 169 171 174 177 179 179 178 176 177 177 174 170 168 167 168 171 171 169 166 162 158 155 149 139 130 124 120 118 113 108 102 94 85 79 70 60 52 44 37 32 29 26 23 22 21 21 21 20 19 18 17 17 17 16 14 13 14 14 14 15 16 14 13 14 15 14 15 18 19
185 181 179 176 174 173 174 174 171 169 169 167 167 170 170 169 170 171 173 176 177 178 178 177 177 176 174 170 170 172 174 176 174 172 170 166 162 159 154 145 136 128 123 123 118 111 105 99 91 86 77 60 46 37 30 27 24 22 20 18 17 18 17 16 16 15 13 13 13 12 11 11 10 11 12 14 13 11 11 12 12 12 14 16 16
185 183 179 175 173 172 174 175 172 169 168 166 165 167 168 167 168 170 171 171 173 175 175 174 174 173 173 172 174 175 178 178 176 175 173 167 164 161 157 150 142 133 129 129 122 114 110 109 104 97 80 59 44 33 26 23 21 18 16 15 14 15 15 14 14 13 10 10 11 10 9 10 10 9 10 10 9 8 8 8 9 10 12 14 13
184 182 178 175 174 174 175 176 174 171 169 167 165 164 164 164 165 166 166 166 167 171 173 173 173 172 173 175 176 177 181 183 181 179 175 169 166 163 158 153 147 140 137 132 125 120 123 123 121 118 96 67 50 39 26 21 20 15 12 13 13 13 15 15 15 13 10 10 10 9 9 9 8 7 6 6 6 5 4 4 6 7 9 10 9
183 180 179 178 176 176 178 177 175 173 173 171 168 165 163 162 163 163 161 160 162 165 167 170 172 172 175 177 178 179 183 186 186 183 177 171 167 163 159 155 149 146 143 134 127 131 135 129 123 113 93 66 43 30 18 15 15 12 12 15 16 17 19 19 18 16 15 13 11 10 9 7 6 4 3 2 3 4 3 4 4 5 7 7 7
185 181 180 179 179 180 181 179 177 176 176 175 174 170 166 163 162 161 159 158 159 160 163 166 169 172 174 175 178 183 185 184 184 183 178 173 169 164 161 158 155 155 152 140 135 148 152 137 127 108 77 55 33 19 10 9 13 16 20 23 24 25 26 25 24 22 20 18 15 13 11 9 8 7 5 4 4 4 5 5 5 5 6 7 6
187 182 180 179 180 182 182 181 180 180 179 179 178 174 170 166 163 161 160 159 158 159 161 164 169 172 173 174 179 185 185 182 182 181 178 174 171 167 165 164 165 166 164 157 161 183 188 159 134 107 69 47 30 17 12 17 23 27 30 34 36 37 36 33 30 27 23 20 18 15 13 12 12 12 10 9 8 8 7 8 8 7 7 7 7
188 184 182 180 181 183 183 183 183 182 182 182 179 174 172 170 167 165 163 162 161 161 162 164 168 173 176 179 182 184 183 182 182 179 176 173 172 170 169 169 172 176 178 178 187 203 205 176 138 106 75 51 40 32 30 34 36 38 43 48 50 48 43 38 33 28 24 21 18 15 13 12 12 12 12 10 10 10 9 9 8 7 7 7 6
185 185 183 183 183 184 184 185 185 184 183 183 179 175 174 174 173 171 169 167 167 166 164 166 169 173 177 181 184 183 181 180 180 178 175 173 173 172 171 172 178 186 191 193 197 200 192 169 139 116 94 71 57 51 49 51 54 58 62 64 61 52 43 35 29 24 20 18 15 11 9 8 7 6 5 4 4 4 4 4 4 3 4 3 3
183 184 184 185 186 187 187 187 186 185 183 181 178 176 176 177 177 176 174 173 172 172 172 172 171 173 178 181 183 182 180 178 179 179 176 174 174 175 175 180 189 197 201 198 189 179 166 150 135 122 105 88 75 74 76 76 78 78 74 65 56 46 35 25 18 13 10 8 5 2 359 357 355 354 353 353 353 353 352 353 353 353 354 354 354
184 186 188 187 187 188 188 186 186 185 183 180 178 177 178 181 181 180 179 179 179 181 183 182 179 179 182 182 183 183 181 179 180 180 177 176 178 179 182 189 197 201 202 195 180 167 156 147 139 127 112 97 90 95 100 96 88 78 65 51 39 28 16 5 358 353 352 351 348 346 344 343 342 341 341 342 342 343 343 343 343 343 344 344 344
188 192 193 190 189 189 188 186 186 185 183 182 181 180 181 183 184 184 185 184 186 190 193 191 189 189 189 187 187 186 184 183 184 183 180 180 183 185 189 195 198 197 197 195 186 176 170 166 158 143 128 117 112 114 113 101 79 56 31 17 7 358 351 346 341 338 337 336 334 333 333 333 332 332 332 333 334 334 335 335 336 336 336 336 337
196 199 199 195 193 192 190 188 187 186 185 186 186 185 186 187 187 188 189 190 193 197 199 198 198 197 197 195 193 190 189 189 188 185 184 185 188 192 196 199 198 194 192 194 196 193 190 194 194 187 178 169 158 157 162 294 337 332 332 333 334 333 332 330 328 326 325 324 325 325 326 327 327 326 325 326 327 327 328 329 330 330 330 329 330
201 203 203 201 198 196 194 193 191 189 188 189 190 190 191 192 192 192 194 195 197 199 202 204 205 204 202 200 198 196 194 193 190 187 188 190 195 200 202 203 202 198 195 198 206 212 213 217 220 220 223 229 237 252 275 292 302 309 312 312 313 316 318 318 318 318 319 320 321 322 323 324 324 323 323 324 323 324 324 326 327 328 327 327 327
200 203 204 205 203 200 199 197 195 193 192 192 192 193 194 196 196 196 197 198 199 201 206 210 209 207 203 200 199 199 199 195 192 190 191 195 201 205 208 209 209 208 207 210 217 227 233 231 228 229 232 241 251 265 280 290 296 301 305 307 308 310 312 313 314 315 316 317 319 320 321 323 324 324 324 324 324 324 324 325 326 326 325 325 325
198 202 204 205 205 205 203 202 199 197 195 193 194 195 196 197 198 198 197 197 199 204 210 211 205 200 198 196 196 198 198 195 193 192 193 198 204 208 213 217 218 217 217 219 224 234 239 236 233 236 244 256 266 275 283 291 298 302 304 305 305 306 307 309 310 311 313 315 318 320 321 322 322 322 322 322 323 324 324 323 323 323 323 322 322
198 202 204 205 204 205 206 205 202 200 198 197 195 195 195 197 200 200 198 198 201 206 209 206 199 193 192 192 192 192 191 190 190 192 195 201 208 215 223 227 226 222 220 221 226 234 239 241 243 249 257 264 270 279 289 296 300 301 300 299 299 299 302 304 306 310 314 316 317 319 319 319 319 319 320 320 320 320 320 320 320 321 321 321 320
200 204 205 205 205 205 205 204 204 203 200 198 194 193 195 199 200 200 199 201 205 207 203 197 193 189 187 186 184 182 182 184 186 190 196 204 214 224 229 228 222 217 215 219 228 239 246 250 252 256 261 266 272 281 290 294 296 296 296 296 298 300 303 306 309 312 314 315 315 316 316 316 316 316 317 318 318 318 318 319 319 318 318 318 317
201 203 204 203 202 201 198 199 200 199 197 195 193 194 197 200 200 202 204 207 208 204 197 190 186 183 180 178 177 177 179 183 188 193 200 208 216 219 216 210 207 209 216 228 241 249 254 256 257 260 266 272 278 285 290 294 297 298 300 302 303 305 308 309 310 312 313 314 314 315 314 314 315 315 315 316 317 317 317 317 317 317 316 316 315
200 202 202 199 195 191 189 189 190 191 192 194 195 196 198 200 202 205 209 210 206 198 189 183 179 177 175 175 176 180 186 193 199 202 206 209 209 205 203 205 212 222 233 245 252 256 259 261 263 269 275 281 287 291 295 298 300 302 304 307 308 309 310 311 312 314 316 315 315 315 314 315 315 315 315 316 315 315 315 315 315 316 316 315 315
198 199 196 191 187 186 184 183 184 188 191 194 196 199 202 204 207 210 212 209 199 189 182 179 177 176 178 182 187 193 200 205 208 209 209 209 208 209 215 224 233 241 248 254 257 261 263 266 270 278 286 291 296 297 299 301 303 304 307 308 309 310 312 313 314 314 314 313 314 315 315 316 315 315 314 315 314 314 314 314 314 314 314 314 314
196 192 188 184 184 184 183 181 184 188 191 193 198 204 207 209 212 214 211 201 188 181 178 179 180 182 186 192 197 202 206 210 213 212 210 210 216 223 230 236 241 247 254 258 260 263 268 274 281 288 292 295 298 299 300 302 304 305 305 306 308 310 311 311 310 310 310 311 313 315 314 314 314 313 313 313 314 314 314 314 314 315 314 314 314
189 185 182 182 183 184 185 185 188 191 194 198 204 207 208 209 210 207 198 187 179 177 178 182 185 187 189 193 199 204 209 214 218 217 214 217 224 228 231 235 242 250 255 257 261 269 278 286 290 292 294 295 298 300 303 305 305 305 306 307 308 309 308 307 307 309 311 312 314 314 314 313 313 314 314 315 315 316 316 317 317 317 317 317 317
184 183 183 184 186 187 189 191 195 199 203 203 202 201 199 197 193 187 181 177 176 180 185 188 190 191 194 199 204 209 213 217 220 221 223 227 231 230 231 238 246 250 253 258 266 275 282 286 288 290 292 295 299 302 303 304 304 304 305 307 306 306 307 308 310 311 313 313 313 313 313 314 315 316 317 318 318 318 319 319 319 320 321 321 321
182 182 184 185 187 189 191 195 201 204 203 197 191 188 185 181 177 175 174 176 181 187 191 193 195 200 204 206 207 209 212 217 222 227 231 234 235 235 239 245 248 250 255 262 268 273 277 283 287 290 292 295 298 301 302 304 305 305 305 306 306 307 308 310 312 312 313 313 314 315 316 317 318 319 319 320 320 321 320 321 321 322 323 323 323